FW9535 Weather Reports


Display with metric or nautical units.
time (UTC)temp
F
wind
direction
speed
MPH
gust
MPH
rain 1hr
in
rain 24hr
in
rain mn
in
humidity
%
barometer
mb
20260509033343 70 237 3.0 3.0 0.00 0.00 0.00 57 1022.3
20260509031841 71 282 1.0 1.0 0.00 0.00 0.00 55 1022.2
20260509030339 73 257 2.0 2.0 0.00 0.00 0.00 50 1022.5
20260509024839 72 304 0.0 1.0 0.00 0.00 0.00 49 1022.5
20260509023336 72 245 3.0 5.0 0.00 0.00 0.00 50 1022.7
20260509021832 71 233 3.0 5.0 0.00 0.00 0.00 50 1023.2
20260509020331 70 263 3.0 5.0 0.00 0.00 0.00 52 1023.1
20260509014828 70 185 2.0 2.0 0.00 0.00 0.00 53 1023.3
20260509013324 70 174 3.0 3.0 0.00 0.00 0.00 53 1023.6
20260509011820 69 250 2.0 2.0 0.00 0.00 0.00 55 1023.7
20260509010318 69 285 2.0 3.0 0.00 0.00 0.00 54 1023.9
20260509004813 68 226 3.0 5.0 0.00 0.00 0.00 55 1024.2
20260509003311 67 238 2.0 2.0 0.00 0.00 0.00 57 1024.3
20260509001809 67 192 4.0 5.0 0.00 0.00 0.00 58 1024.0
20260509000306 67 274 1.0 1.0 0.00 0.00 0.00 59 1024.2
20260508234802 67 279 3.0 3.0 0.00 0.00 0.00 61 1024.1
20260508233302 66 296 1.0 1.0 0.00 0.00 0.00 61 1023.8
20260508231759 64 248 2.0 2.0 0.00 0.00 0.00 66 1024.0
20260508230259 62 262 2.0 2.0 0.00 0.00 0.00 71 1024.0
20260508224757 61 177 3.0 5.0 0.00 0.00 0.00 72 1024.0
20260508223254 60 232 2.0 2.0 0.00 0.00 0.00 72 1023.9
20260508221751 59 221 2.0 2.0 0.00 0.00 0.00 75 1023.6
20260508220246 57 249 2.0 2.0 0.00 0.00 0.00 78 1023.5
20260508214742 57 293 0.0 0.0 0.00 0.00 0.00 77 1023.5
20260508213238 54 234 3.0 7.0 0.00 0.00 0.00 81 1023.3
20260508211738 53 255 0.0 1.0 0.00 0.00 0.00 82 1023.1
20260508210235 51 206 2.0 3.0 0.00 0.00 0.00 85 1022.8
20260508204730 52 225 3.0 3.0 0.00 0.00 0.00 84 1022.8
20260508203225 53 268 0.0 0.0 0.00 0.00 0.00 81 1022.6
20260508201721 53 263 0.0 1.0 0.00 0.00 0.00 81 1022.4
20260508200216 53 215 2.0 2.0 0.00 0.00 0.00 82 1022.2
20260508194712 53 253 0.0 0.0 0.00 0.00 0.00 82 1021.9
20260508193208 53 261 0.0 0.0 0.00 0.00 0.00 83 1021.8
20260508191705 53 231 1.0 2.0 0.00 0.00 0.00 82 1021.5
20260508190200 54 212 0.0 0.0 0.00 0.00 0.00 80 1021.7
20260508184658 54 266 0.0 0.0 0.00 0.00 0.00 80 1021.4
20260508183153 55 278 0.0 0.0 0.00 0.00 0.00 78 1021.3
20260508181653 56 199 1.0 2.0 0.00 0.00 0.00 77 1021.3
20260508180150 56 236 1.0 2.0 0.00 0.00 0.00 77 1021.2
20260508174647 57 231 2.0 2.0 0.00 0.00 0.00 75 1021.0
20260508173142 57 258 1.0 1.0 0.00 0.00 0.00 75 1021.0
20260508171639 57 268 0.0 1.0 0.00 0.00 0.00 76 1020.9
20260508170136 56 266 0.0 0.0 0.00 0.00 0.00 76 1020.9
20260508164632 57 265 0.0 0.0 0.00 0.00 0.00 76 1021.0
20260508163129 57 257 2.0 2.0 0.00 0.00 0.00 75 1020.9
20260508161625 57 248 1.0 1.0 0.00 0.00 0.00 74 1020.8
20260508160124 57 244 2.0 2.0 0.00 0.00 0.00 75 1020.7
20260508154621 56 209 3.0 3.0 0.00 0.00 0.00 76 1020.5
20260508153117 57 246 0.0 0.0 0.00 0.00 0.00 76 1020.8
20260508151612 57 263 1.0 1.0 0.00 0.00 0.00 75 1021.0
20260508150108 57 267 1.0 1.0 0.00 0.00 0.00 74 1020.9
20260508144605 58 203 1.0 2.0 0.00 0.00 0.00 73 1020.7
20260508143102 58 257 1.0 1.0 0.00 0.00 0.00 72 1020.5
20260508141558 58 200 3.0 6.0 0.00 0.00 0.00 72 1020.6
20260508140055 58 287 0.0 0.0 0.00 0.00 0.00 72 1020.5
20260508134555 57 282 0.0 0.0 0.00 0.00 0.00 73 1020.5
20260508133052 58 266 0.0 0.0 0.00 0.00 0.00 72 1020.5
20260508131548 58 273 0.0 0.0 0.00 0.00 0.00 72 1020.6
20260508130044 58 276 0.0 0.0 0.00 0.00 0.00 72 1020.3
20260508124542 57 241 1.0 1.0 0.00 0.00 0.00 73 1020.4
20260508123038 58 274 1.0 1.0 0.00 0.00 0.00 72 1020.4
20260508121536 58 284 1.0 1.0 0.00 0.00 0.00 72 1020.2
20260508120035 58 290 0.0 0.0 0.00 0.00 0.00 72 1020.2
20260508114531 57 268 1.0 2.0 0.00 0.00 0.00 73 1020.1
20260508113028 58 219 2.0 3.0 0.00 0.00 0.00 72 1020.2
20260508111524 59 271 1.0 1.0 0.00 0.00 0.00 71 1019.9
20260508110020 59 271 2.0 2.0 0.00 0.00 0.00 70 1019.6
20260508104517 60 212 3.0 5.0 0.00 0.00 0.00 67 1019.5
20260508103013 60 227 3.0 5.0 0.00 0.00 0.00 67 1019.5
20260508101511 60 192 4.0 5.0 0.00 0.00 0.00 66 1019.1
20260508100009 60 226 2.0 2.0 0.00 0.00 0.00 66 1019.0
20260508094506 60 208 3.0 3.0 0.00 0.00 0.00 66 1018.8
20260508093003 60 192 5.0 6.0 0.00 0.00 0.00 66 1018.8
20260508091501 60 229 3.0 3.0 0.00 0.00 0.00 66 1018.7
20260508085958 60 210 3.0 6.0 0.00 0.00 0.00 65 1018.2
20260508084454 60 290 4.0 6.0 0.00 0.00 0.00 65 1018.0
20260508082950 61 265 3.0 3.0 0.00 0.00 0.00 64 1017.9
20260508081447 61 200 4.0 5.0 0.00 0.00 0.00 63 1017.8
20260508075944 61 183 3.0 5.0 0.00 0.00 0.00 63 1017.4
20260508074442 61 197 2.0 3.0 0.00 0.00 0.00 63 1017.2
20260508072939 62 301 1.0 2.0 0.00 0.00 0.00 62 1016.7
20260508071437 61 195 4.0 6.0 0.00 0.00 0.00 62 1016.2
20260508065935 62 204 3.0 5.0 0.00 0.00 0.00 62 1016.2
20260508064433 63 204 4.0 6.0 0.00 0.00 0.00 59 1016.1
20260508062931 65 243 3.0 5.0 0.00 0.00 0.00 57 1015.8
20260508061429 66 197 6.0 8.0 0.00 0.00 0.00 54 1015.6
20260508055925 67 189 4.0 8.0 0.00 0.00 0.00 54 1015.4
20260508054422 67 187 7.0 8.0 0.00 0.00 0.00 54 1015.1
20260508052919 67 218 3.0 5.0 0.00 0.00 0.00 53 1014.6
20260508051414 68 201 7.0 10.0 0.00 0.00 0.00 52 1014.5
20260508045909 68 277 3.0 3.0 0.00 0.00 0.00 51 1014.5
20260508044407 68 254 1.0 2.0 0.00 0.00 0.00 52 1014.2
20260508042902 68 205 5.0 6.0 0.00 0.00 0.00 51 1014.1
20260508041359 68 231 10.0 13.0 0.00 0.00 0.00 50 1013.9
20260508035856 68 205 8.0 11.0 0.00 0.00 0.00 50 1013.7